Weather in Shchuche

Russia / Yamalo-Nenets Autonomous Okrug     67°15′52″N   68°40′20″E
temp.,
°C
wind,
m/s
gust,
m/s
humid.,
%
clouds,
%
prec.,
mm/h
press.,
hPa
HPBL,
m
27 february, sat
sat2723:00−25s339614 0.0 102121
02:00−26ssw349818 0.0 102123
05:00−26ssw349812 0.0 102138
08:00−27ssw349833 0.0 102137
11:00−25s469747 0.0 1021110
14:00−24s479638 0.0 1021142
17:00−25s469629 0.0 102187
20:00−26s46988 0.0 102190
28 february, sun
sun2823:00−26ssw589820 0.0 1021110
02:00−26s599857 0.0 1020141
05:00−26ssw6109864 0.0 1020175
08:00−27ssw6119758 0.0 1020191
11:00−26ssw7139565 0.0 1019271
14:00−25ssw7129482 0.0 1019296
17:00−25ssw6129482 0.0 1019269
20:00−26ssw7139491 0.0 1018266
1 march, mon
mon123:00−27ssw6139584 0.0 1019252
02:00−27ssw7139796 0.0 1017255
05:00−27ssw8159798 0.0 1017263
08:00−27ssw81598100 0.0 1016278
11:00−26ssw91696100 0.0 1014343
14:00−25ssw91597100 0.0 1012362
17:00−24ssw81596100 0.0 1011394
20:00−23ssw81695100 0.0 1009379
2 march, tue
tue223:00−23ssw91695100 0.0 1007365
02:00−21ssw91695100 0.0 1005428
05:00−20ssw91694100 0.1 1004472
08:00−19ssw101692100 0.1 1002507
11:00−18ssw101694100 0.3 1003541
14:00−16ssw101592100 0.2 1002589
17:00−15ssw91591100 0.3 1002630
20:00−14s91591100 0.2 1002638
3 march, wed
wed323:00−15s91492100 0.4 1002583
02:00−16s81392100 0.1 1002486
05:00−17s81394100 0.2 1002434
08:00−17s81394100 0.2 1002443
11:00−17s71194100 0.4 1002500
14:00−15s71192100 0.2 1002595
17:00−14s71293100 0.3 1002603
20:00−14s71294100 0.2 1002534